AirNav   Bose ProFlight Aviation Headset
 
 1106 users online  

43NC Bahnson Gliderport
Mocksville, North Carolina, USA

GOING TO MOCKSVILLE?


FAA INFORMATION EFFECTIVE 16 AUGUST 2018

Location

FAA Identifier: 43NC
Lat/Long: 36-01-15.0000N / 080-30-59.0000W
36-01.250000N / 080-30.983333W
36.0208333 / -80.5163889
(estimated)
Elevation: 810 ft. / 247 m (estimated)
Variation: 07W (1995)
From city: 7 miles NE of MOCKSVILLE, NC
Time zone: UTC -4 (UTC -5 during Standard Time)
Zip code: 27028

Gliderport Operations

Gliderport use: Private use. Permission required prior to landing
Activation date: 01/2000
Control tower: no
ARTCC: ATLANTA CENTER
FSS: RALEIGH FLIGHT SERVICE STATION
Attendance: UNATNDD
Wind indicator: yes
Segmented circle: yes

Gliderport Communications

WX ASOS at INT (16 nm NE): PHONE 336-661-3096
WX AWOS-3 at EXX (18 nm SE): 119.825 (336-956-2967)

Nearby radio navigation aids

VOR radial/distance  VOR name  Freq  Var
GSOr270/26.2GREENSBORO VORTAC116.2003W
BZMr081/36.3BARRETTS MOUNTAIN VOR/DME110.8006W

 
NDB name  Hdg/Dist  Freq  Var  ID
ZEPHYR158/20.132608WZEF --.. . ..-.

Gliderport Services

Runway Information

Runway 1/19

Dimensions: 3000 x 100 ft. / 914 x 30 m
Surface: turf
RUNWAY 1  RUNWAY 19
Traffic pattern: leftright

Gliderport Ownership and Management from official FAA records

Ownership: Privately-owned
Owner: BERT BAHNSON
2078 HIWAY 801N
MOCKSVILLE, NC 27028
Phone 336-998-3160
Manager: MARY LOUISE BAHNSON
2078 HIWAY 801N
MOCKSVILLE, NC 27028
Phone 336-998-3160

Gliderport Operational Statistics

Aircraft based on the field: 20
Single engine airplanes: 4
Gliders airplanes: 15
Ultralights: 1
    

Instrument Procedures

There are no published instrument procedures at 43NC.

Some nearby airports with instrument procedures:

8A7 - Twin Lakes Airport (7 nm SE)
KINT - Smith Reynolds Airport (16 nm NE)
KEXX - Davidson County Airport (18 nm SE)
KZEF - Elkin Municipal Airport (20 nm NW)
KRUQ - Mid-Carolina Regional Airport (22 nm S)
 
Loc | Ops | Rwys | IFR | FBO | Links
Com | Nav | Svcs | Stats | Notes


 
Area around 43NC (Bahnson Gliderport)
 
Road maps at: MapQuest Bing Google
 
Aerial photo
WARNING: Photo may not be current or correct
Aerial photo of 43NC (Bahnson Gliderport)
Do you have a better or more recent aerial photo of Bahnson Gliderport that you would like to share? If so, please send us your photo.

 
Sectional chart

 
Airport distance calculator
Flying to Bahnson Gliderport? Find the distance to fly.

From to 43NC

Sunrise and sunset
Times for 18-Aug-2018
 Local
(UTC-4)
 Zulu
(UTC)
Morning civil twilight06:1710:17
Sunrise06:4410:44
Sunset20:0800:08
Evening civil twilight20:3500:35

Current date and time
Zulu (UTC)  18-Aug-2018 15:07:29
Local (UTC-4)  18-Aug-2018 11:07:29
 
METAR
KINT 
16nm NE 
181454Z 24005KT 10SM OVC009 25/22 A3005 RMK AO2 SLP163 T02500217 58003
KEXX 
18nm SE 
181450Z AUTO 10SM OVC017 25/24 A3004 RMK AO2 T02510238
KRUQ 
22nm S 
181450Z AUTO 25004KT 10SM OVC015 25/22 A3004 RMK AO2 T02460217
KSVH 
27nm SW 
181450Z AUTO 21007KT 10SM OVC015 26/22 A3004 RMK AO2 T02550218
KMWK 
27nm N 
181455Z AUTO 00000KT 10SM OVC007 24/22 A3007 RMK AO2 T02400221
KGSO 
28nm E 
181454Z 23005KT 10SM BKN017 OVC250 26/23 A3003 RMK AO2 SLP157 T02560228 58003
KUKF 
31nm NW 
181450Z AUTO 00000KT 10SM SCT007 BKN110 23/23 A3010 RMK AO2
TAF
KINT 
16nm NE 
181149Z 1812/1912 23006KT P6SM BKN014 BKN100 TEMPO 1812/1815 BKN008 FM181500 24010KT P6SM BKN040 TEMPO 1818/1822 3SM -TSRA SCT025 BKN035CB FM190300 23006KT P6SM SCT015 BKN035 TEMPO 1908/1912 BKN007
NOTAMs
Click for the latest NOTAMs
NOTAMs are issued by the DoD/FAA and will open in a separate window not controlled by AirNav.

 

 
 

Would you like to see your business listed on this page?

 If your business provides an interesting product or service to pilots, flight crews, aircraft, or users of the Bahnson Gliderport, you should consider listing it here.  To start the listing process, click on the button below
 
Add a business
 

Other Pages about Bahnson Gliderport

Update a link
 
Copyright © AirNav, LLC. All rights reserved. Privacy Policy  Contact